Home   Weather   Yverdon-les-Bains   Past weeks

Flag for Switzerland Past Weather in Yverdon-les-Bains, Vaud, Switzerland — Yesterday and Last 2 Weeks

Now
62 °F

Clear.


Feels Like: 62 °F
Forecast: 55 / 82 °F
Wind: No wind

Location: Payerne

Current Time: May 27, 2017 at 12:42:03 am

Latest Report: May 26, 2017 at 11:00 pm


Visibility: 19 mi

Pressure: 30.03 "Hg

Humidity: 73%

Dew Point: 53 °F

Location of Yverdon-les-BainsLocation

Past Weather in Yverdon-les-Bains — Graph

°F

Yverdon-les-Bains Temperature Yesterday

Maximum temperature yesterday: 77 °F (at 5:00 pm)
Minimum temperature yesterday: 49 °F (at 6:00 am)
Average temperature yesterday: 64 °F

High & Low Weather Summary for the Past Weeks

 TemperatureHumidityPressure
High79 °F (May 17, 6:00 pm)97% (May 20, 1:00 am)30.42 "Hg (May 20, 1:00 am)
Low40 °F (May 21, 6:00 am)27% (May 22, 5:00 pm)29.60 "Hg (May 11, 11:00 pm)
Average60 °F70%30.09 "Hg
* Reported May 11 11:00 pm — May 26 11:00 pm, Yverdon-les-Bains. Weather by CustomWeather, © 2017

Note: Actual official high and low records may vary slightly from our data, if they occured in-between our weather recording intervals... More about our weather records

Advertising

Yverdon-les-Bains Weather History for the Previous 24 Hours

Scroll right to see more
 ConditionsComfort  
Time TempWeatherWind HumidityBarometerVisibility
11:00 pm
Fri, May 26
62 °FClear.No wind73%30.03 "Hg19 mi
10:00 pm66 °FMild.No wind68%30.01 "HgN/A
9:00 pm71 °FMild.2 mph55%29.97 "HgN/A
8:00 pm75 °FPassing clouds.5 mph42%29.95 "Hg19 mi
7:00 pm76 °FMild.7 mph44%29.94 "HgN/A
5:00 pm77 °FMild.3 mph45%29.96 "HgN/A
4:00 pm76 °FMild.5 mph45%29.97 "HgN/A
3:00 pm74 °FMild.3 mph49%29.99 "HgN/A
2:00 pm72 °FPassing clouds.2 mph52%30.02 "Hg22 mi
1:00 pm69 °FMild.3 mph56%30.04 "HgN/A
12:00 pm68 °FMild.2 mph60%30.05 "HgN/A
11:00 am65 °FSunny.3 mph60%30.06 "Hg22 mi
10:00 am63 °FMild.3 mph64%30.08 "HgN/A
9:00 am60 °FCool.3 mph67%30.09 "HgN/A
8:00 am56 °FSunny.2 mph74%30.09 "Hg25 mi
7:00 am53 °FCool.No wind86%30.11 "HgN/A
6:00 am49 °FCool.1 mph89%30.11 "HgN/A
5:00 am51 °FCool.No wind83%30.09 "HgN/A
4:00 am53 °FCool.No wind81%30.08 "HgN/A
3:00 am55 °FCool.2 mph76%30.07 "HgN/A
2:00 am59 °FClear.8 mph64%30.06 "Hg16 mi
1:00 am59 °FCool.7 mph63%30.06 "HgN/A
12:00 am61 °FRefreshingly cool.6 mph59%30.06 "HgN/A
Weather by CustomWeather, © 2017

See weather overviewHow to use our weather pages